User: anonymous   Login
Location: *
(38.4303°S, 157.0822°W)
Time: 19:12:42
(UTC+00:00)
Language:

Lacrosse 5 rocket - Orbit

View from above orbital plane
View from above orbital plane
View from above satellite
View from above satellite

Ground track
Ground track

The orbit data is extracted from the following two-line orbital elements,

1 28647U 05016B   24207.27897097  .00011149  00000-0  47048-3 0  9995
2 28647  56.9935 230.5842 0096722 347.5353  12.3299 15.19637392286307
Epoch (UTC): 25 July 2024 06:41:43
Eccentricity: 0.0096722
inclination: 56.9935°
perigee height: 440 km
apogee height: 573 km
right ascension of ascending node: 230.5842°
argument of perigee: 347.5353°
revolutions per day: 15.19637392
mean anomaly at epoch: 12.3299°
orbit number at epoch: 28630

The dashed part of the orbit path shows where the satellite is in the earth's shadow,  

DLR